TITAN 3C TRANSTAGE DEB, 33509

Orbit data source: Space-Track

TITAN 3C TRANSTAGE DEB, 33509 is space debris in GEO originally from a launch on Thu, 26 Sep 1968 UTC launched from the Air Force Eastern Test Range (AFETR). Debris objects in space refer to the collection of defunct objects orbiting the Earth. Examples of debris include non-operational satellites, rocket bodies, and fragments generated from explosions, collisions, or faulty payload assembly.

Not visible in the next 10 days
Identifier
33509, 1968-081K
Orbit
GEO
Country
Flag of USUS
Related business
Manufacturer
Unknown
Mission
Spacecraft
Bus & Motor
Unknown
Mass
Unknown
Launch date (UTC)
1968-09-26 (58 years ago)
Launch vehicle
Unknown
Launch site
Air Force Eastern Test Range (AFETR)
Object type
Payload
Rocket body
Debris
Shape & HBR
Unknown shape, 1.1 m
Radar Cross Section
Large (>1 m²)

Expand to show TLE details & history
Last TLE update: 19 hours ago

TLE from 19 hours ago
0 TITAN 3C TRANSTAGE DEB
1 33509U 68081K   26257.79668103 -.00000107  00000-0  00000-0 0  9994
2 33509   2.0588  56.6088 0053818  14.8862 248.5743  1.02089985 80667
Epoch: 2026-09-14T19:07Z
TLE epoch observation values (Epoch: 2026-09-14T19:07:13.240Z)
Latitude
-2.03221°
Longitude
38.90915°
Altitude
35,366.467 km
Speed
3.087 km/s
True Right ascension
21h 17m 56s
True Declination
-2° 01' 48"
Sunlit
Object was in daylight at epoch
Visualization orbit readout
Latitude
Unknown
Longitude
Unknown
Altitude
Unknown
Speed
Unknown
Apparent Right ascension
Unknown
Apparent Declination
Unknown
Sunlit
N/A
Visualization observer readout
Local Sidereal Time
07:10:31
Azimuth
Unknown
Elevation
Unknown
Doppler factor
Unknown
Orbital elements
Apogee altitude
35,509.774 km
Perigee altitude
35,061.322 km
Semi-major axis
41,663.685 km
Eccentricity
0.00538
Inclination
2.0588°
RAAN
56.6088°
Arg. of periapsis
14.8862°
True anomaly
248.00163°
Mean anomaly
248.5743°
Eccentric anomaly
248.28782°
Mean motion
0.25522 °/min
Orbital period
1,410.57 mins
BSTAR
0
Loading maneuver chart data...
Computing Atmospheric mass density...

Documentation

Showing up to 5 results
|